This is the latest recevied weather packets stored in our database for station/object NO4D. If no packets are shown the sender has not sent any weather packets the latest 10 day(s).
| Time | Temp. | Humidity | Pressure | Rain* | Wind** | Luminosity | Snow |
|---|---|---|---|---|---|---|---|
| 1777229744 | 25° C | 60% | 1013.7 hPa | 0 mm | - | 159 W/m² | - |
| 1777229441 | 25° C | 60% | 1013.8 hPa | 0 mm | - | 760 W/m² | - |
| 1777229138 | 25° C | 59% | 1013.6 hPa | 0 mm | - | 686 W/m² | - |
| 1777228836 | 25° C | 59% | 1014 hPa | 0 mm | - | 607 W/m² | - |
| 1777228531 | 25° C | 61% | 1014 hPa | 0 mm | - | 576 W/m² | - |
| 1777228228 | 25° C | 60% | 1013.9 hPa | 0 mm | - | 270 W/m² | - |
| 1777227926 | 25° C | 61% | 1013.7 hPa | 0 mm | - | 711 W/m² | - |
| 1777227622 | 25° C | 61% | 1013.7 hPa | 0 mm | - | 349 W/m² | - |
| 1777227318 | 25.56° C | 60% | 1013.7 hPa | 0 mm | - | 326 W/m² | - |
| 1777227016 | 24.44° C | 62% | 1013.7 hPa | 0 mm | - | 808 W/m² | - |
| 1777226715 | 24.44° C | 64% | 1013.9 hPa | 0 mm | - | 230 W/m² | - |
| 1777226410 | 23.89° C | 65% | 1013.8 hPa | 0 mm | - | 783 W/m² | - |
| 1777226106 | 23.89° C | 64% | 1013.7 hPa | 0 mm | - | 186 W/m² | - |
| 1777225801 | 24.44° C | 63% | 1013.8 hPa | 0 mm | - | 224 W/m² | - |
| 1777225499 | 24.44° C | 64% | 1014 hPa | 0 mm | - | 805 W/m² | - |
| 1777225196 | 25° C | 62% | 1013.8 hPa | 0 mm | - | 841 W/m² | - |
| 1777224892 | 23.89° C | 64% | 1013.9 hPa | 0 mm | - | 841 W/m² | - |
| 1777224588 | 23.89° C | 65% | 1014.1 hPa | 0 mm | - | 184 W/m² | - |
| 1777224284 | 23.89° C | 66% | 1014.1 hPa | 0 mm | - | 224 W/m² | - |
| 1777223981 | 23.33° C | 66% | 1014.2 hPa | 0 mm | - | 811 W/m² | - |
| 1777223678 | 23.89° C | 68% | 1014 hPa | 0 mm | - | 751 W/m² | - |
| 1777223374 | 23.89° C | 67% | 1014 hPa | 0 mm | - | 243 W/m² | - |
| 1777223072 | 22.78° C | 68% | 1014.1 hPa | 0 mm | - | 855 W/m² | - |
| 1777222768 | 22.78° C | 70% | 1014.1 hPa | 0 mm | - | 370 W/m² | - |
| 1777222466 | 23.33° C | 68% | 1014.5 hPa | 0 mm | - | 215 W/m² | - |
* Rain latest hour (hover to see other rain measurements)
** Current wind speed in m/s (hover to see current wind gust speed)